Location: Newark
(45.8667°N, 9.7333°E)
Time: 16:38:53
(UTC+00:00)

A-11 Canister half - Visible Passes

Search period start: 28 January 2020 00:00
Search period end: 07 February 2020 00:00
Orbit: 1517 x 1683 km, 47.2° (Epoch: 27 January)

Date Brightness Start Highest point End Pass type
(mag) Time Alt. Az. Time Alt. Az. Time Alt. Az.
28 Jan 10.2 01:59:55 30° E 01:59:55 30° E 02:03:59 10° E visible
28 Jan 8.9 03:58:08 56° WSW 03:59:23 61° SSW 04:08:30 10° SE visible
28 Jan 10.2 05:56:22 10° W 06:02:50 22° SW 06:09:24 10° S visible
29 Jan 10.6 01:38:28 22° E 01:38:28 22° E 01:41:04 10° E visible
29 Jan 8.9 03:36:41 63° SSW 03:36:41 63° SSW 03:45:39 10° SE visible
29 Jan 10.0 05:34:54 14° W 05:40:03 23° SW 05:46:53 10° S visible
30 Jan 10.9 01:17:04 14° E 01:17:04 14° E 01:18:08 10° E visible
30 Jan 9.1 03:15:17 57° SSE 03:15:17 57° SSE 03:22:48 10° SE visible
30 Jan 9.9 05:13:30 19° W 05:17:15 25° SW 05:24:20 10° S visible
30 Jan 10.9 20:27:59 10° SSW 20:28:32 12° SSW 20:28:32 12° SSW visible
31 Jan 9.5 02:53:56 45° SE 02:53:56 45° SE 02:59:56 10° SE visible
31 Jan 9.8 04:52:10 24° WSW 04:54:27 27° SW 05:01:45 10° S visible
31 Jan 10.6 20:05:15 10° SSW 20:07:32 18° SSW 20:07:32 18° SSW visible
01 Feb 10.0 02:32:39 33° SE 02:32:39 33° SE 02:37:05 10° SE visible
01 Feb 9.7 04:30:53 28° SW 04:31:38 28° SW 04:39:09 10° S visible
01 Feb 10.2 19:42:32 10° SSW 19:46:31 24° S 19:46:31 24° S visible
02 Feb 10.4 02:11:25 23° SE 02:11:25 23° SE 02:14:13 10° ESE visible
02 Feb 9.7 04:09:39 30° SW 04:09:39 30° SW 04:16:31 10° S visible
02 Feb 9.9 19:19:50 10° SSW 19:25:30 29° SSE 19:25:30 29° SSE visible
02 Feb 10.9 21:22:32 10° WSW 21:23:45 15° WSW 21:23:45 15° WSW visible
03 Feb 10.9 01:50:15 14° ESE 01:50:15 14° ESE 01:51:21 10° ESE visible
03 Feb 9.9 03:48:29 28° SSW 03:48:29 28° SSW 03:53:52 10° SSE visible
03 Feb 9.7 18:57:08 10° SSW 19:04:26 31° SE 19:04:26 31° SE visible
03 Feb 10.5 20:59:38 10° WSW 21:02:41 23° SW 21:02:41 23° SW visible
04 Feb 10.1 03:27:22 24° S 03:27:22 24° S 03:31:13 10° SSE visible
04 Feb 9.7 18:34:29 10° S 18:42:26 30° SE 18:43:22 29° SE visible
04 Feb 10.0 20:36:43 10° SW 20:41:36 34° SW 20:41:36 34° SW visible
05 Feb 10.5 03:06:17 18° S 03:06:17 18° S 03:08:31 10° SSE visible
05 Feb 9.8 18:11:50 10° S 18:19:36 28° SE 18:22:14 25° ESE visible
05 Feb 9.5 20:13:49 10° SW 20:20:28 48° SW 20:20:28 48° SW visible
06 Feb 10.8 02:45:15 12° SSE 02:45:15 12° SSE 02:45:50 10° SSE visible
06 Feb 10.0 17:49:13 10° S 17:56:47 26° SE 18:01:02 19° E visible
06 Feb 9.1 19:50:57 10° SW 19:59:16 61° S 19:59:16 61° S visible
06 Feb 10.8 21:55:48 10° W 21:57:31 17° W 21:57:31 17° W visible
